Regional Weather Roundup
Issued by NWS

Home | Current Version | Previous Version | Graphics & Text | Print | Product List | Glossary On
Versions: 1 2 3 4 5 6 7 8 9 10 11 12 13 14 15 16 17 18 19 20 21 22 23 24 25 26 27 28 29 30 31 32 33 34 35 36 37 38 39 40 41 42 43 44 45 46 47 48 49 50
000
ASUS43 KMPX 121510
RWRMN
WEATHER ROUNDUP FOR MINNESOTA
NATIONAL WEATHER SERVICE TWIN CITIES/CHANHASSEN MN
900 AM CST FRI FEB 12 2016


NOTE: "FAIR" INDICATES FEW OR NO CLOUDS BELOW 12,000 FEET WITH NO
SIGNIFICANT WEATHER AND/OR OBSTRUCTIONS TO VISIBILITY. N/A MEANS
CURRENT SKY AND/OR WEATHER CONDITIONS ARE NOT AVAILABLE.

MNZ060>063-068>070-121600-
   Twin Cities Metro

CITY           SKY/WX    TMP DP  RH WIND       PRES   REMARKS
TWIN CITIES    SUNNY      8  -2  63 NW14G24   30.36R WCI  -8
ST PAUL        MOSUNNY    8  -2  63 NW21G28   30.37R WCI -12
CRYSTAL        SUNNY      7  -3  64 NW18G24   30.36R WCI -12
BLAINE         SUNNY      9   0  66 NW16G23   30.34R WCI  -9
LAKEVILLE      SUNNY      7   0  72 NW17G24   30.34R WCI -12
EDEN PRAIRIE   SUNNY      8  -2  63 NW18G25   30.36R WCI -11
SOUTH ST PAUL  MOSUNNY    9  -2  61 NW16      30.35R WCI  -8
LAKE ELMO      FAIR       9   0  66 NW16G24   30.34R WCI  -9
$$
MNZ001>005-007-008-013>017-022>024-027-028-121600-
   Northwest Minnesota

CITY           SKY/WX    TMP DP  RH WIND       PRES   REMARKS
BEMIDJI        MOSUNNY   -8 -15  74 NW16      30.43R WCI -31
HALLOCK        CLOUDY    -9 -18  64 NW15      30.61R WCI -31
ROSEAU         CLOUDY   -13 -18  77 NW9       30.52R WCI -31
WARROAD        CLOUDY   -13 -20  70 NW10      30.49R WCI -32
THIEF RVR FALL SUNNY     -8 -22  49 NW15      30.54R WCI -29
CROOKSTON      SUNNY     -6 -11  77 N20       30.59R WCI -29
FOSSTON        PTSUNNY   -8 -17  65 NW14G20   30.50R WCI -28
DETROIT LAKES  MOSUNNY   -4  -9  77 N16G22    30.47R WCI -25
MOORHEAD       PTSUNNY   -2  -9  71 N24       30.56R WCI -27
PARK RAPIDS    SUNNY     -5 -14  65 N15       30.40R WCI -26
MAHNOMEN       FAIR      -7 -13  74 N17       30.49R WCI -30
$$
MNZ006-009>011-018-025>026-121600-
   North Central Minnesota

CITY           SKY/WX    TMP DP  RH WIND       PRES   REMARKS
BAUDETTE       SUNNY    -13 -21  67 NW15G25   30.43R WCI -36
FLAG ISLAND    SUNNY    -15 -20  76 NW18      30.47R WCI -41
INTL FALLS     CLOUDY   -11 -19  68 NW16      30.39R HAZE    WCI -34
WASKISH        SUNNY     -9 -17  70 NW9       30.45R WCI -27
LONGVILLE      SUNNY     -6 -15  65 NW7G17    30.39R WCI -20
GRAND RAPIDS   PTSUNNY   -8 -15  71 NW18G25   30.33R WCI -31
CRANE LAKE     PTSUNNY  -11 -18  70 N7G17     30.37R WCI -26
ORR            PTSUNNY   -9 -18  64 NW13G21   30.30R HAZE    WCI -30
COOK           PTSUNNY   -8 -17  65 NW13      30.32R HAZE    WCI -28
WALKER         FAIR      -7 -14  69 NW14      30.41R WCI -27
$$
MNZ012-019>021-037-121600-
   Northeast Minnesota

CITY           SKY/WX    TMP DP  RH WIND       PRES   REMARKS
DULUTH         MOSUNNY   -4 -14  62 NW17G25   30.24R WCI -26
ELY            SUNNY     -9 -17  70 NW14G28   30.25R HAZE    WCI -31
HIBBING        CLOUDY    -9 -15  75 NW21G29   30.31R HAZE    WCI -34
EVELETH        CLOUDY    -6 -15  65 N17G24    30.29R HAZE    WCI -28
DULUTH HARBOR  SUNNY      1  -9  60 NW18      30.35R WCI -19
TWO HARBORS    SUNNY      0 -11  60 NW14G23   30.23R WCI -19
SILVER BAY     SUNNY     -2 -15  55 NW9G18    30.22R WCI -18
GRAND MARAIS     N/A     -2 -14  56 VRB6      30.26R WCI -14
G MARAIS ARPRT MOSUNNY   -9 -22  54 NW18G28   30.07R HAZE    WCI -33
$$
MNZ029>031-032-039>041-046>048-054>057-064-121600-
   West Central Minnesota

CITY           SKY/WX    TMP DP  RH WIND       PRES   REMARKS
FERGUS FALLS   SUNNY     -2  -9  71 N16G29    30.53R WCI -23
WHEATON        MOSUNNY    3  -2  78 NW15      30.55R WCI -15
MORRIS         LGT SNOW   1  -6  71 N22G29    30.47R WCI -21
ALEXANDRIA     SUNNY      0 -10  63 NW18G29   30.42R WCI -21
ELBOW LAKE     FAIR      -1  -8  74 N17G26    30.48R WCI -22
WADENA         SUNNY     -4 -11  71 N14G24    30.42R WCI -24
GLENWOOD       SUNNY      1  -8  66 NW22      30.42R WCI -21
APPLETON       SUNNY      5  -2  72 N20       30.50R WCI -15
BENSON         SUNNY      3  -6  66 N20       30.46R WCI -18
ORTONVILLE     CLOUDY     3  -6  66 NW13      30.51R WCI -14
MADISON        MOSUNNY    7  -4  61 N21       30.51R WCI -13
WILLMAR        FAIR       7   0  72 NW20      30.43R WCI -13
$$
MNZ033>034-036-042>043-049>051-058-059-121600-
   Central Minnesota

CITY           SKY/WX    TMP DP  RH WIND       PRES   REMARKS
ST CLOUD       SUNNY      3  -6  66 NW20G25   30.38R WCI -18
SAUK CENTRE    FAIR       1  -8  68 NW18      30.41R WCI -20
PAYNESVILLE    SUNNY      4  -6  65 NW20      30.41R WCI -17
AITKIN         MOSUNNY    0 -15  50 NW12G23   30.36R WCI -18
PINE RIVER     MOSUNNY   -4 -11  71 NW12G20   30.42R WCI -22
BRAINERD       MOSUNNY   -2 -12  62 N21G28    30.38R WCI -25
STAPLES        SUNNY     -4 -11  71 N15G23    30.40R WCI -25
LONG PRAIRIE   FAIR       0  -8  71 NW16G22   30.40R WCI -21
LITTLE FALLS   SUNNY      1  -9  60 NW16G23   30.40R WCI -18
LITCHFIELD     SUNNY      7  -2  66 NW23      30.40R WCI -14
BUFFALO        SUNNY      6  -3  68 NW12G20   30.39R WCI -10
MAPLE LAKE     SUNNY      7  -2  69 NW13      30.39R WCI -10
$$
MNZ037-044-045-052-053-121600-
   East Central Minnesota

CITY           SKY/WX    TMP DP  RH WIND       PRES   REMARKS
PRINCETON      SUNNY      5  -4  66 NW14G23   30.35R WCI -12
MORA           MOSUNNY    5  -6  61 NW15G22   30.35R WCI -13
CAMBRIDGE      SUNNY      7  -4  61 NW9G22    30.33R WCI  -7
RUSH CITY      MOSUNNY    5  -6  61 NW12G23   30.34R WCI -11
MOOSE LAKE     MOSUNNY    1 -13  51 N14G24    30.31R WCI -17
HINCKLEY       FAIR       3  -8  60 NW21G30   30.32R WCI -18
CLOQUET        SUNNY     -4 -15  59 NW22G33   30.28R WCI -28
MCGREGOR       MOSUNNY    0  -9  65 NW17      30.34R WCI -21
$$
MNZ071>073-080-081-089-090-097-098-121600-
   Southwest Minnesota

CITY           SKY/WX    TMP DP  RH WIND       PRES   REMARKS
MONTEVIDEO     SUNNY      7   0  72 N17G23    30.49R WCI -12
GRANITE FALLS  SUNNY      8   0  70 NW15G23   30.49R WCI  -9
CANBY          SUNNY      9   1  67 NW14G20   30.50R WCI  -7
MARSHALL       SUNNY      7  -2  66 NW23      30.46R WCI -14
REDWOOD FALLS  SUNNY      7  -3  64 NW17G26   30.44R WCI -12
OLIVIA         SUNNY     10   3  72 NW17      30.43R WCI  -7
PIPESTONE      CLOUDY    10   0  61 N12G18    30.41R WCI  -4
WINDOM         SUNNY      7   0  72 NW23      30.40R WCI -14
WORTHINGTON    CLOUDY     9   3  78 N17       30.41R WCI -10
JACKSON        MOSUNNY   10   3  72 NW29G36   30.39R HAZE    WCI -11
TRACY          SUNNY      8   0  69 NW17G25   30.45R WCI -10
SLAYTON        CLOUDY     7   2  80 NW15      30.43R WCI -10
$$
MNZ065>067-074>077-082>085-091>093-121600-
   South Central Minnesota

CITY           SKY/WX    TMP DP  RH WIND       PRES   REMARKS
MANKATO        SUNNY    N/A N/A N/A N25       30.36R
NEW ULM        SUNNY      7   0  72 NW17G26   30.40R WCI -12
ST JAMES       SUNNY      9   3  78 NW18G24   30.42R WCI -10
FAIRMONT       SUNNY     10   1  67 NW18      30.37R WCI  -8
GLENCOE        SUNNY      8   0  69 NW16G22   30.39R WCI  -9
FARIBAULT      SUNNY      9   1  72 NW14G23   30.34R WCI  -8
OWATONNA       SUNNY      9   0  66 NW17      30.33R WCI -10
WASECA         SUNNY     10   3  72 NW21      30.36R WCI  -9
ALBERT LEA     SUNNY      9   3  78 NW13G21   30.32R WCI  -7
$$
MNZ078>079-086>088-094>096-121600-
   Southeast Minnesota

CITY           SKY/WX    TMP DP  RH WIND       PRES   REMARKS
ROCHESTER      SUNNY      8   2  76 NW21G28   30.26R WCI -12
RED WING       SUNNY     10   0  61 NW9       30.31R WCI  -2
STANTON        SUNNY      9   1  68 NW16      30.33R WCI  -8
DODGE CENTER   SUNNY      9   1  72 NW20G25   30.28R WCI -11
WINONA         SUNNY     14   7  73 NW21G26   30.30R WCI  -4
AUSTIN         PTSUNNY    9   3  78 NW17G23   30.29R WCI -10
PRESTON        MOSUNNY    9   3  76 NW10G16   30.26R WCI  -5
$$
ABBREVIATIONS USED IN REMARKS
   TC - TEMPERATURES IN CELSIUS
  WCI - WIND CHILL INDEX
   HX - HEAT INDEX
  VSB - VISIBILITY
$$



USA.gov is the U.S. government's official web portal to all federal, state and local government web resources and services.